Location: Ambatotampy
(18.8181°S, 47.6186°E)
Time: 23:22:02
(UTC+00:00)

Palapa 6 Rocket - Pass Details

Date: 21 January 2021
Orbit: 485 x 1216 km, 22.7° (Epoch: 24 February)

Event Time Altitude Azimuth Distance (km) Brightness Sun altitude
Exits shadow 00:49:18 35° 239° (WSW) 1,059 4.0 -21.9°
Maximum altitude 00:51:11 63° 171° (S) 777 3.6 -21.5°
Drops below altitude 10° 00:56:49 10° 90° (E) 2,417 6.9 -20.4°
Sets 00:59:41 0° 86° (E) 3,486 7.8 -19.8°
